TimeEST,TemperatureF,Dew PointF,Humidity,Sea Level PressureIn,VisibilityMPH,Wind Direction,Wind SpeedMPH,Gust SpeedMPH,PrecipitationIn,Events,Conditions,WindDirDegrees,DateUTC
12:15 AM,60.8,60.8,100,30.15,10.0,South,3.5,-,0.00,,Clear,180,2013-01-13 05:15:00
12:35 AM,60.8,60.8,100,30.15,5.0,SSW,3.5,-,0.00,,Clear,200,2013-01-13 05:35:00
12:55 AM,60.8,60.8,100,30.16,5.0,SSW,4.6,-,0.00,,Clear,200,2013-01-13 05:55:00
1:15 AM,60.8,60.8,100,30.16,5.0,SSW,4.6,-,0.00,,Clear,200,2013-01-13 06:15:00
1:35 AM,60.8,60.8,100,30.15,2.5,South,3.5,-,0.00,,Clear,190,2013-01-13 06:35:00
1:55 AM,59.0,59.0,100,30.15,1.0,South,3.5,-,0.00,,Clear,180,2013-01-13 06:55:00
2:15 AM,59.0,59.0,100,30.14,1.8,South,4.6,-,0.00,,Clear,180,2013-01-13 07:15:00
2:35 AM,59.0,59.0,100,30.14,2.5,Calm,Calm,-,0.00,,Clear,0,2013-01-13 07:35:00
2:55 AM,60.8,60.8,100,30.14,2.0,South,3.5,-,0.00,,Clear,170,2013-01-13 07:55:00
3:15 AM,60.8,60.8,100,30.13,0.5,South,3.5,-,0.00,Fog,Fog,180,2013-01-13 08:15:00
3:35 AM,59.0,59.0,100,30.13,0.5,South,3.5,-,0.00,Fog,Fog,180,2013-01-13 08:35:00
3:55 AM,60.8,60.8,100,30.13,0.5,SSW,3.5,-,0.00,Fog,Fog,200,2013-01-13 08:55:00
4:15 AM,59.0,59.0,100,30.12,0.5,Calm,Calm,-,0.00,Fog,Fog,0,2013-01-13 09:15:00
4:35 AM,57.2,57.2,100,30.11,0.2,South,3.5,-,0.00,Fog,Fog,170,2013-01-13 09:35:00
4:55 AM,57.2,57.2,100,30.12,1.5,Calm,Calm,-,0.00,,Clear,0,2013-01-13 09:55:00
5:15 AM,57.2,57.2,100,30.12,0.8,South,3.5,-,0.00,,Mist,180,2013-01-13 10:15:00
5:35 AM,57.2,57.2,100,30.12,0.2,South,3.5,-,0.00,Fog,Fog,190,2013-01-13 10:35:00
6:50 AM,60.8,59.0,94,30.14,1.0,Calm,Calm,-,N/A,Fog,Fog,0,2013-01-13 11:50:00
7:50 AM,60.8,59.0,94,30.16,0.5,Calm,Calm,-,N/A,Fog,Fog,0,2013-01-13 12:50:00
8:50 AM,66.2,60.8,83,30.20,10.0,Calm,Calm,-,N/A,,Clear,0,2013-01-13 13:50:00
9:50 AM,69.8,62.6,78,30.20,10.0,Calm,Calm,-,N/A,,Clear,0,2013-01-13 14:50:00
10:50 AM,71.6,60.8,69,30.18,10.0,South,6.9,-,N/A,,Clear,180,2013-01-13 15:50:00
11:51 AM,71.6,60.8,69,30.16,10.0,SSW,5.8,-,N/A,,Clear,210,2013-01-13 16:51:00
1:50 PM,69.8,60.8,73,30.12,10.0,South,3.5,-,N/A,,Scattered Clouds,170,2013-01-13 18:50:00
2:55 PM,66.2,60.8,83,30.12,10.0,South,5.8,-,N/A,,Partly Cloudy,180,2013-01-13 19:55:00
3:54 PM,66.2,60.8,83,30.15,10.0,South,3.5,-,N/A,,Clear,190,2013-01-13 20:54:00
4:50 PM,66.2,60.8,83,30.15,10.0,South,4.6,-,N/A,,Scattered Clouds,170,2013-01-13 21:50:00
5:50 PM,64.4,60.8,88,30.15,7.0,South,5.8,-,N/A,,Mostly Cloudy,170,2013-01-13 22:50:00
6:50 PM,62.6,60.8,94,30.14,8.0,South,4.6,-,N/A,,Mostly Cloudy,170,2013-01-13 23:50:00
7:50 PM,62.6,60.8,94,30.14,8.0,South,4.6,-,N/A,,Mostly Cloudy,180,2013-01-14 00:50:00
8:15 PM,60.8,60.8,100,30.14,9.0,South,3.5,-,0.00,,Clear,170,2013-01-14 01:15:00
8:35 PM,60.8,60.8,100,30.14,7.0,South,4.6,-,0.00,,Clear,170,2013-01-14 01:35:00
8:55 PM,60.8,60.8,100,30.14,7.0,South,4.6,-,0.00,,Clear,190,2013-01-14 01:55:00
9:15 PM,62.6,62.6,100,30.15,9.0,South,4.6,-,0.00,,Clear,180,2013-01-14 02:15:00
9:35 PM,62.6,62.6,100,30.16,8.0,South,4.6,-,0.00,,Clear,180,2013-01-14 02:35:00
9:55 PM,62.6,62.6,100,30.16,8.0,South,3.5,-,0.00,,Clear,180,2013-01-14 02:55:00
10:15 PM,62.6,62.6,100,30.16,7.0,South,4.6,-,0.00,,Clear,180,2013-01-14 03:15:00
10:35 PM,60.8,60.8,100,30.16,6.0,South,3.5,-,0.00,,Clear,180,2013-01-14 03:35:00
10:55 PM,62.6,62.6,100,30.18,5.0,South,4.6,-,0.00,,Clear,190,2013-01-14 03:55:00
11:15 PM,62.6,62.6,100,30.17,6.0,South,3.5,-,0.00,,Clear,180,2013-01-14 04:15:00
11:35 PM,62.6,62.6,100,30.17,6.0,SSW,3.5,-,0.00,,Clear,200,2013-01-14 04:35:00
11:55 PM,62.6,62.6,100,30.17,5.0,South,4.6,-,0.00,,Clear,180,2013-01-14 04:55:00